Regional Weather Roundup
Issued by NWS

Home | Current Version | Previous Version | Graphics & Text | Print | Product List | Glossary On
Versions: 1 2 3 4 5 6 7 8 9 10 11 12 13 14 15 16 17 18 19 20 21 22 23 24 25 26 27 28 29 30 31 32 33 34 35 36 37 38 39 40 41 42 43 44 45 46 47 48 49 50
000
ASUS43 KDMX 301007
RWRIA

WEATHER ROUNDUP FOR IOWA
NATIONAL WEATHER SERVICE DES MOINES IA
400 AM CST FRI JAN 30 2015

NOTE: "FAIR" INDICATES FEW OR NO CLOUDS BELOW 12,000 FEET WITH NO
SIGNIFICANT WEATHER AND/OR OBSTRUCTIONS TO VISIBILITY.

* - THESE STATIONS ARE NOT NWS STATIONS...THUS NOT UNDER NWS
QUALITY CONTROL.  THEY ALSO DO NOT REPORT WEATHER SUCH
AS PRECIPITATION OR FOG.

IAZ001>003-012>014-020>022-031>034-043>046-301100-
   NORTHWEST IOWA

CITY           SKY/WX    TMP DP  RH WIND       PRES   REMARKS
CARROLL *      CLEAR     16  12  86 NE3       30.54R
CHEROKEE *     CLEAR     16  16 100 CALM      30.53R
DENISON *      CLEAR     18  16  93 CALM      30.52S
LE MARS *      CLEAR     18  18 100 CALM      30.53S
ORANGE CITY *  PTCLDY    21  18  86 CALM      30.51S
SHELDON *      MOCLDY    18  16  93 CALM      30.50S
SIOUX CITY     PTCLDY    18  15  88 SE5       30.54F WCI  11
SPENCER        CLEAR     16  11  80 NE6       30.51  WCI   7
STORM LAKE *   CLEAR     16  14  93 NE6       30.52R WCI   7
$$

IAZ055>058-069>071-079>083-090>094-301100-
   SOUTHWEST IOWA

CITY           SKY/WX    TMP DP  RH WIND       PRES   REMARKS
ATLANTIC *     CLEAR     16  14  93 NW3       30.54S
AUDUBON *      CLEAR     16  12  86 CALM      30.53S
CLARINDA *     CLEAR     19  18  93 CALM      30.57R
COUNCIL BLFS * CLEAR     23  21  93 N5        30.53S WCI  17
CRESTON *      CLEAR     19  18  93 N6        30.52S WCI  11
HARLAN  *      CLEAR     18  18 100 CALM      30.57S
LAMONI         CLEAR     21  17  84 N7        30.51S WCI  12
RED OAK *      CLEAR     18  16  93 N5        30.55S WCI  11
SHENANDOAH *   CLEAR     18  16  93 CALM      30.56S
$$

IAZ047>049-059>061-072>074-084-301100-
   CENTRAL IOWA

CITY           SKY/WX    TMP DP  RH WIND       PRES   REMARKS
AMES           CLEAR     17  12  80 N6        30.53F WCI   9
ANKENY *       CLEAR     18  14  86 N6        30.53F WCI   9
CHARITON *     CLEAR     19  16  86 N10       30.51S WCI   8
DES MOINES     CLEAR     20  13  74 NE6       30.53F WCI  12
GRINNELL*      CLEAR     18  14  86 N9        30.53S WCI   6
KNOXVILLE *    PTCLDY    19  14  79 N9        30.51F WCI   9
MARSHALLTOWN   CLEAR     17  13  84 N9        30.52S WCI   6
PELLA *        CLEAR     19  16  86 N5        30.54F WCI  13
PERRY *          N/A     18  16  93 N6        30.54R WCI   9
$$

IAZ004>006-015-016-023>025-035-036-301100-
   NORTH CENTRAL IOWA

CITY           SKY/WX    TMP DP  RH WIND       PRES   REMARKS
ALGONA *       CLEAR     14  12  92 NE8       30.52F WCI   3
CLARION *      CLEAR     16  12  86 N9        30.53R WCI   4
ESTHERVILLE    CLEAR     12  10  92 N5        30.51F WCI   4
FORT DODGE *   CLEAR     16  10  79 CALM      30.54S
MASON CITY     CLEAR     13  10  88 NW8       30.53S WCI   2
FOREST CITY *  CLEAR     14  10  85 NW6       30.52R WCI   5
IOWA FALLS *     N/A     18  14  86 N9        30.53S WCI   6
$$

IAZ007>011-017>019-026>030-037>042-050>054-066-301100-
   NORTHEAST IOWA

CITY           SKY/WX    TMP DP  RH WIND       PRES   REMARKS
CEDAR RAPIDS   CLEAR     18  14  84 NW8       30.50R WCI   8
CHARLES CITY * CLEAR     14   7  73 N8        30.52S WCI   3
CLINTON *      CLEAR     18  10  73 NW7       30.51R WCI   8
DECORAH *      CLEAR     12   7  79 N8        30.49F WCI   1
DUBUQUE        CLEAR     16   8  71 NW10      30.47R WCI   4
MONTICELLO *   CLEAR     18  12  79 NW8       30.50S WCI   7
OELWEIN *      CLEAR     14   9  79 N8        30.52R WCI   3
WATERLOO       CLEAR     15   8  73 N10       30.53R WCI   2
$$

IAZ064-065-067-068-078-301100-
   EAST CENTRAL IOWA

CITY           SKY/WX    TMP DP  RH WIND       PRES   REMARKS
DAVENPORT      CLEAR     19  11  70 NW8       30.49R WCI   9
IOWA CITY      CLEAR     22  14  71 NW7       30.53R WCI  13
MT. PLEASANT * CLEAR     23  16  74 NW13      30.52R WCI  11
MUSCATINE *    CLEAR     23  16  74 NW14      30.52S WCI  11
QUAD CITIES    CLEAR     22  12  65 NW10      30.49R WCI  11
$$

IAZ062-063-075>077-085>089-095>099-301100-
   SOUTHEAST IOWA

CITY           SKY/WX    TMP DP  RH WIND       PRES   REMARKS
BURLINGTON     CLEAR     24  17  74 NW8       30.50R WCI  15
FAIRFIELD *    CLOUDY    23  16  74 NW16      30.53R WCI  10
FORT MADISON * CLEAR     23  18  80 NW8       30.52R WCI  14
KEOKUK *       PTCLDY    23  18  80 NW6       30.51R WCI  16
OSKALOOSA *      N/A     19  16  86 N10       30.53F WCI   8
CENTERVILLE *  MOCLDY    23  18  80 N12       30.53S WCI  12
OTTUMWA        CLEAR     19  14  81 NW9       30.53R WCI   8
WASHINGTON *   CLEAR     21  19  93 NW10      30.52S WCI  10
$$

ABBREVIATIONS USED IN REMARKS
   TC - TEMPERATURES IN CELSIUS
  WCI - WIND CHILL INDEX
   HX - HEAT INDEX
  VSB - VISIBILITY
$$



USA.gov is the U.S. government's official web portal to all federal, state and local government web resources and services.